Lapse_Rate
4.5 4.7 4.8 4.9 4.2 3.9 4.2 4.3 4.5 4.8 5.1 5.9 4.9 4.3 4.3 4.4 4.4 4.6 4.2 4.2 3.4 4.3
2.9 2.9 3.0 2.8 3.2 3.4 3.3 4.4 3.8 3.0 2.7 3.1 3.2 3.7 4.3 3.8 4.4 4.3 4.1 4.5 4.4 4.5
1.6 1.9 1.8 1.7 1.7 2.1 2.9 2.8 2.7 2.3 2.1 1.8 1.3 1.7 2.3 1.9 2.2 2.2 2.0 1.6 1.6 1.8
1.9 1.7 1.4 1.3 1.5 1.5 2.0 2.0 1.6 1.3 1.1 1.6 1.1 1.1 1.2 1.6 1.4 1.7 1.5 1.8 1.7 1.6
2.8 2.8 2.2 2.0 1.7 1.9 1.9 1.2 0.7 0.9 0.6 -0.0 0.2 0.6 1.1 0.8 1.4 1.4 1.4 1.3 2.5 1.5
3.5 3.5 4.0 3.9 3.6 3.0 2.3 1.7 2.1 1.6 1.3 1.8 1.6 1.5 1.5 2.1 1.7 1.9 2.3 2.3 1.6 2.3
3.1 3.3 3.8 4.2 4.6 4.2 3.9 3.0 2.7 2.9 2.9 2.8 2.6 2.5 3.1 3.0 2.8 2.5 2.4 2.5 2.8 3.7
3.4 3.5 3.0 3.2 3.3 4.5 3.0 2.5 2.7 2.7 2.3 2.6 3.1 3.5 3.3 3.2 2.9 3.2 3.0 2.9 3.4 3.6
3.4 3.2 2.8 2.8 2.7 2.3 2.0 2.2 2.0 1.6 1.5 1.6 2.5 3.8 3.7 3.1 3.1 3.9 3.7 3.4 3.5 5.0
3.2 3.0 3.3 3.2 2.8 2.7 2.6 2.8 2.4 2.8 2.3 3.0 4.2 5.1 4.7 4.9 4.3 4.3 5.2 5.3 5.9 6.8
2.8 3.3 3.9 3.9 3.4 3.3 3.4 3.2 3.4 3.4 3.2 3.5 4.8 5.4 5.3 5.2 4.2 4.9 5.4 5.9 6.6 6.6
2.7 3.0 3.4 3.4 3.2 3.1 2.9 3.1 3.3 3.7 4.0 4.2 4.5 6.0 6.1 5.0 4.3 4.7 4.9 5.8 6.3 7.3
3.1 2.8 3.0 3.3 3.4 3.0 2.9 3.4 3.7 4.6 4.8 6.6 4.8 6.9 6.6 5.5 4.8 4.9 5.5 5.9 6.1 7.3
1.8 1.8 2.6 2.8 2.9 2.8 2.9 2.9 2.9 3.6 4.1 4.6 5.4 5.5 7.6 8.0 7.9 7.1 6.8 6.1 5.5 5.4
Wind_Speed
5 2 2 3 3 3 4 4 7 8 8 10 11 8 7 6 7 6 8 8 5 4
9 9 7 7 6 5 5 5 7 7 8 8 7 4 3 2 7 4 2 3 1 0
11 10 8 7 8 8 7 7 7 9 10 9 10 10 8 7 8 9 6 7 9 6
11 11 10 10 9 9 8 8 9 9 9 9 12 11 9 10 10 10 10 9 9 8
13 12 12 11 11 10 8 10 10 10 11 12 11 11 10 12 10 11 11 10 8 10
11 11 12 12 11 11 11 11 10 13 13 11 11 11 11 10 10 11 9 8 10 9
8 8 8 9 10 9 10 10 11 10 10 10 11 11 9 8 8 8 8 8 8 7
4 5 6 7 8 8 8 8 8 8 9 9 9 8 8 7 7 6 7 6 7 8
4 4 4 5 6 6 7 7 6 7 8 8 7 12 10 8 6 6 6 6 6 5
4 3 3 3 4 4 4 4 5 5 4 4 4 11 11 10 3 3 3 4 3 3
4 3 3 4 4 5 3 4 3 3 4 5 6 13 13 13 6 6 6 5 3 3
4 4 4 4 3 3 3 3 3 2 4 4 4 11 12 10 6 6 6 5 5 3
3 4 4 4 3 2 1 1 2 1 0 3 3 8 10 7 3 4 3 5 5 12
3 4 3 3 3 3 3 3 4 4 4 4 3 5 9 10 3 3 3 3 3 4
Wind_Direction
352 299 303 351 15 26 11 339 324 296 278 258 230 208 200 221 231 221 199 204 188 207
38 45 46 48 49 37 23 7 8 16 28 14 10 318 239 75 277 182 268 127 70 316
29 32 36 43 40 36 20 30 42 47 34 35 40 38 50 46 30 59 46 41 53 38
30 32 34 37 33 36 25 28 49 59 62 50 49 47 40 63 70 59 60 51 58 55
27 31 34 32 26 26 29 44 37 56 53 48 42 32 61 57 53 62 55 53 57 48
30 29 25 23 23 23 21 32 32 49 49 48 46 38 38 48 53 59 55 56 58 43
36 31 29 25 22 23 24 28 31 38 48 48 45 39 30 35 43 57 58 52 46 33
56 45 41 39 28 23 21 32 34 32 40 39 46 31 26 31 40 46 61 63 62 58
65 47 46 48 46 46 28 26 43 39 46 41 46 31 34 47 56 47 53 59 49 49
49 69 35 30 26 26 48 40 20 34 85 65 55 45 43 42 50 62 63 61 92 71
32 47 62 61 47 34 30 33 53 51 38 34 39 33 34 35 22 38 32 24 62 98
29 38 40 40 40 29 49 37 25 28 46 66 33 43 42 41 32 25 15 8 7 26
32 56 37 1 359 342 357 342 333 347 211 92 69 47 42 46 39 18 10 359 7 11
77 101 61 358 336 336 343 7 14 31 51 75 94 29 32 15 22 360 20 0 348 337